Location: Charlotte
(35.2269°N, 80.8433°W)
Time: 02:47:30
(UTC-04:00)

ISS - Visible Passes

Search period start: 27 April 2018 00:00
Search period end: 07 May 2018 00:00
Orbit: 402 x 407 km, 51.6° (Epoch: 27 April)

Date Brightness Start Highest point End Pass type
(mag) Time Alt. Az. Time Alt. Az. Time Alt. Az.
29 Apr -1.5 05:36:36 10° S 05:38:57 19° SE 05:41:19 10° E visible
01 May -3.3 05:28:29 18° SSW 05:30:39 53° SE 05:33:50 10° ENE visible
02 May -2.1 04:38:25 24° SE 04:38:28 24° SE 04:41:09 10° ENE visible
03 May -3.4 05:20:55 26° WSW 05:22:26 51° NW 05:25:38 10° NE visible
04 May -3.2 04:30:39 55° ENE 04:30:39 55° ENE 04:33:22 10° NE visible
05 May -0.7 03:40:20 13° ENE 03:40:20 13° ENE 03:40:47 10° ENE visible
05 May -2.0 05:12:58 17° WNW 05:14:21 22° NNW 05:17:00 10° NNE visible
06 May -2.5 04:22:34 34° N 04:22:34 34° N 04:24:58 10° NE visible
